Location: Unspecified
(0.0000°N, 0.0000°E)
Time: 18:17:19
(UTC+00:00)

Courier 1B Rocket - Pass Details

Date: 03 October 2020
Orbit: 921 x 1202 km, 28.2° (Epoch: 27 October)

Event Time Altitude Azimuth Distance (km) Brightness Sun altitude
Rises 00:58:23 0° 243° (WSW) 4,034 - -72.2°
Reaches altitude 10° 01:01:16 10° 244° (WSW) 3,040 - -71.5°
Maximum altitude 01:08:47 77° 329° (NNW) 1,118 - -69.7°
Drops below altitude 10° 01:15:45 10° 55° (NE) 2,828 - -68.0°
Sets 01:18:21 0° 57° (ENE) 3,738 - -67.3°
